View from above orbital plane
|
View from above satellite
|
Ground track
|
The orbit data is extracted from the following two-line orbital elements,
1 13403U 82079B 21016.77319362 -.00000247 00000-0 -17731-4 0 9993
2 13403 81.1675 208.4724 0031680 278.9825 80.7814 15.07299533 93742
Epoch (UTC): | 16 January 2021 18:33:23 |
Eccentricity: | 0.0031680 |
inclination: | 81.1675° |
perigee height: | 522 km |
apogee height: | 566 km |
right ascension of ascending node: | 208.4724° |
argument of perigee: | 278.9825° |
revolutions per day: | 15.07299533 |
mean anomaly at epoch: | 80.7814° |
orbit number at epoch: | 9374 |
The dashed part of the orbit path shows where the satellite is in the earth's shadow,
|
|